Flag for Canada Weather past 2 weeks in Inuvik, Northwest Territories, Canada

Now
43 °F

Fog.


Feels Like: 43 °F
Forecast: 39 / 46 °F
Wind: No wind

Location: Inuvik

Current Time: Sep 17, 2014 at 3:57:41 AM

Latest Report: Sep 17, 2014 at 3:00 AM


Visibility: 3 mi

Pressure: 29.47 "Hg

Humidity: 100%

Dew point: 43 °F

Location of InuvikLocation

Historic Weather in Inuvik — Graph

°F

Inuvik temperature yesterday

Maximum temperature yesterday: 45 °F (at 10:00 AM)
Minimum temperature yesterday: 41 °F (at 12:00 AM)
Average temperature yesterday: 43 °F

Past Weeks' High & Low Weather Summary

 TemperatureHumidityPressure
High57 °F (Sep 9, 5:00 PM)100% (Sep 2, 4:00 PM)30.37 "Hg (Sep 2, 4:00 PM)
Low27 °F (Sep 12, 4:00 AM)25% (Sep 9, 8:00 PM)29.48 "Hg (Sep 17, 2:00 AM)
Average40 °F73%30.01 "Hg
* Reported Sep 2 2:00 AM — Sep 17 2:00 AM, Inuvik, Weather by CustomWeather, © 2014

Note: Actual official high and low records may vary slightly from our data, if they occured in-between our weather recording intervals... More about our weather records

Advertising

Inuvik weather history for previous 24 hours

 ConditionsComfort  
Time TempWeatherWind HumidityBarometerVisibility
2:00 AM
Sep 17
43 °FLow clouds.5 mph100%29.48 "Hg15 mi
1:00 AM43 °FLow clouds.6 mph93%29.49 "Hg15 mi
12:00 AM43 °FDrizzle. Low clouds.5 mph93%29.50 "Hg15 mi
11:00 PM
Sep 16
43 °FDrizzle. Low clouds.3 mph93%29.51 "Hg15 mi
10:00 PM43 °FDrizzle. Low clouds.5 mph93%29.54 "Hg15 mi
9:00 PM43 °FLow clouds.5 mph93%29.55 "Hg15 mi
8:00 PM45 °FLow clouds.8 mph87%29.56 "Hg15 mi
7:00 PM45 °FOvercast.7 mph87%29.58 "Hg15 mi
6:00 PM45 °FOvercast.10 mph87%29.60 "Hg15 mi
5:00 PM45 °FLight rain. Low clouds.10 mph87%29.61 "Hg15 mi
4:00 PM45 °FLight rain. Overcast.10 mph81%29.63 "Hg15 mi
3:45 PM45 °FLight rain. Overcast.8 mph81%29.63 "Hg15 mi
3:00 PM45 °FOvercast.12 mph81%29.64 "Hg15 mi
2:00 PM45 °FScattered showers. Overcast.12 mphN/A29.65 "Hg15 mi
1:00 PM45 °FOvercast.14 mph87%29.66 "Hg15 mi
12:00 PM45 °FOvercast.9 mph81%29.67 "Hg15 mi
11:00 AM45 °FOvercast.12 mph87%29.69 "Hg15 mi
10:00 AM45 °FLow clouds.13 mph87%29.70 "Hg15 mi
9:00 AM43 °FDrizzle. Mostly cloudy.10 mph93%29.71 "Hg15 mi
8:00 AM43 °FDrizzle. Mostly cloudy.12 mph93%29.73 "Hg15 mi
7:00 AM43 °FDrizzle. Overcast.10 mph87%29.75 "Hg15 mi
6:51 AM43 °FDrizzle. Overcast.7 mph87%29.75 "Hg15 mi
6:00 AM43 °FLow clouds.9 mph87%29.77 "Hg15 mi
5:00 AM43 °FOvercast.9 mph87%29.79 "Hg15 mi
4:00 AM41 °FOvercast.9 mph93%29.80 "Hg15 mi
3:00 AM41 °FLight rain. Overcast.9 mph93%29.81 "Hg15 mi
Weather by CustomWeather, © 2014

See weather overviewHow to use our weather pages